Regional Weather Roundup
Issued by NWS

Home | Current Version | Previous Version | Graphics & Text | Print | Product List | Glossary Off
Versions: 1 2 3 4 5 6 7 8 9 10 11 12 13 14 15 16 17 18 19 20 21 22 23 24 25 26 27 28 29 30 31 32 33 34 35 36 37 38 39 40 41 42 43 44 45 46 47 48 49 50

000
ASUS43 KMPX 222310
RWRMN
WEATHER ROUNDUP FOR MINNESOTA
NATIONAL WEATHER SERVICE TWIN CITIES/CHANHASSEN MN
500 PM CST MON DEC 22 2014


NOTE: "FAIR" INDICATES FEW OR NO CLOUDS BELOW 12,000 FEET WITH NO
SIGNIFICANT WEATHER AND/OR OBSTRUCTIONS TO VISIBILITY. N/A MEANS
CURRENT SKY AND/OR WEATHER CONDITIONS ARE NOT AVAILABLE.

MNZ060>063-068>070-230000-
   Twin Cities Metro

CITY           SKY/WX    TMP DP  RH WIND       PRES   REMARKS
TWIN CITIES    LGT RAIN  37  34  89 E12       29.60S FOG
ST PAUL        CLOUDY    37  35  92 E6        29.62S FOG
CRYSTAL        LGT RAIN  38  35  89 E6        29.59S FOG
BLAINE         DRIZZLE   37  37 100 E8        29.61R
LAKEVILLE      DRIZZLE   34  34 100 E10       29.59R WCI  26
EDEN PRAIRIE   LGT RAIN  37  34  89 E12       29.58S FOG
SOUTH ST PAUL  CLOUDY    38  36  93 E5        29.60S FOG
LAKE ELMO      DRIZZLE   36  36 100 E6        29.62S
$$
MNZ001>005-007-008-013>017-022>024-027-028-230000-
   Northwest Minnesota

CITY           SKY/WX    TMP DP  RH WIND       PRES   REMARKS
BEMIDJI        DRIZZLE   34  33  96 E9        29.62R WCI  27
HALLOCK        DRIZZLE   36  34  93 NE7       29.65R
ROSEAU         CLOUDY    36  30  80 E8        29.66R HAZE
WARROAD        CLOUDY    34  30  86 E6        29.67R FOG     WCI  29
THIEF RVR FALL CLOUDY    36  36 100 E8        29.63R
CROOKSTON      MIX PCPN  36  36 100 E7        29.62R
FOSSTON        CLOUDY    34  34 100 CALM      29.62R FOG
DETROIT LAKES  DRIZZLE   36  34  93 SE10G17   29.58R
MOORHEAD       CLOUDY    39  39 100 E7        29.58R
PARK RAPIDS    LGT SNOW  34  33  96 E7        29.59R FOG     WCI  28
MAHNOMEN       CLOUDY    36  33  90 E7        29.59R
$$
MNZ006-009>011-018-025>026-230000-
   North Central Minnesota

CITY           SKY/WX    TMP DP  RH WIND       PRES   REMARKS
BAUDETTE       CLOUDY    35  33  92 E7        29.67R WCI  29
FLAG ISLAND    CLOUDY    34  34 100 E6        29.68R FOG     WCI  29
INTL FALLS     MIX PCPN  33  32  96 E6        29.69R WCI  28
WASKISH        CLOUDY    36  34  93 CALM      29.66R
BIG FORK       LGT RAIN  36  34  93 SE5       29.66S
LONGVILLE      LGT RAIN  34  34 100 E3        29.63R
GRAND RAPIDS   CLOUDY    34  30  86 E6        29.65R WCI  29
CRANE LAKE     DRIZZLE   34  34 100 CALM      29.72R
ORR            CLOUDY    34  30  86 CALM      29.67R
COOK           CLOUDY    34  34 100 E3        29.69R
WALKER         RAIN      33  32  98 E5        29.62R WCI  28
$$
MNZ012-019>021-037-230000-
   Northeast Minnesota

CITY           SKY/WX    TMP DP  RH WIND       PRES   REMARKS
DULUTH         SNOW      34  33  96 E14       29.69R VSB 1/2 WCI  25
ELY            CLOUDY    34  32  93 SE7       29.71R WCI  28
HIBBING        LGT SNOW  34  32  92 SE10      29.68R FOG     WCI  26
EVELETH        LGT RAIN  34  34 100 E6        29.70R WCI  29
DULUTH HARBOR  CLOUDY    36  34  93 E10       29.73R
TWO HARBORS    CLOUDY    37  34  87 E7        29.70R
SILVER BAY     DRIZZLE   36  34  93 NE5       29.72R
GRAND MARAIS     N/A     37  35  92 SE6       29.79R
G MARAIS ARPRT FOG       30  28  93 SE3       29.75R VSB<1/4
$$
MNZ029>031-032-039>041-046>048-054>057-064-230000-
   West Central Minnesota

CITY           SKY/WX    TMP DP  RH WIND       PRES   REMARKS
FERGUS FALLS   DRIZZLE   36  34  93 E10       29.57R
WHEATON        DRIZZLE   34  34 100 E15       29.53R WCI  24
MORRIS         LGT RAIN  36  34  93 E14       29.51R
ALEXANDRIA     LGT SNOW  34  32  92 E14       29.55R FOG     WCI  25
ELBOW LAKE     LGT RAIN  33  33  96 E13       29.53R WCI  24
WADENA         LGT SNOW  34  32  93 E9        29.58R WCI  26
GLENWOOD       LGT SNOW  34  34 100 E15       29.55R WCI  24
APPLETON       LGT RAIN  37  36  93 E14G20    29.51R
BENSON         MIX PCPN  36  34  93 SE12      29.53R
ORTONVILLE     DRIZZLE   36  34  93 E14       29.49R
MADISON          N/A     39  39 100 E14       29.49R FOG
WILLMAR        CLOUDY    36  34  93 E14       29.55R
$$
MNZ033>034-036-042>043-049>051-058-059-230000-
   Central Minnesota

CITY           SKY/WX    TMP DP  RH WIND       PRES   REMARKS
ST CLOUD       MIX PCPN  37  33  85 E8        29.59R FOG
SAUK CENTRE    LGT SNOW  33  32  97 E10       29.56R WCI  25
PAYNESVILLE    LGT RAIN  32  32 100 NE10      29.57R WCI  23
AITKIN         LGT SNOW  36  30  80 E3        29.63R
PINE RIVER     LGT SNOW  34  34 100 E6        29.66R WCI  29
BRAINERD       LGT SNOW  33  32  96 CALM      29.62R FOG
STAPLES        LGT RAIN  34  34 100 E5        29.59R WCI  30
LONG PRAIRIE   LGT SNOW  32  32 100 E9        29.57R WCI  24
LITTLE FALLS   LGT SNOW  32  32 100 E7        29.60R WCI  26
LITCHFIELD     DRIZZLE   36  36 100 E12G18    29.57R
BUFFALO        DRIZZLE   34  32  92 E8        29.60R WCI  28
MAPLE LAKE     DRIZZLE   35  35  98 E9        29.59R WCI  28
$$
MNZ037-044-045-052-053-230000-
   East Central Minnesota

CITY           SKY/WX    TMP DP  RH WIND       PRES   REMARKS
PRINCETON      DRIZZLE   36  34  93 E6        29.62R
MORA           CLOUDY    32  32 100 E6        29.65S WCI  26
CAMBRIDGE      DRIZZLE   36  30  80 E5        29.61S
RUSH CITY      CLOUDY    35  33  95 E5        29.64S WCI  31
MOOSE LAKE     LGT RAIN  34  32  93 E6        29.66R WCI  29
HINCKLEY       CLOUDY    34  34 100 CALM      29.66R FOG
CLOQUET        CLOUDY    34  34 100 E8        29.68R FOG     WCI  27
MCGREGOR       CLOUDY    34  32  93 E6        29.65S WCI  29
$$
MNZ071>073-080-081-089-090-097-098-230000-
   Southwest Minnesota

CITY           SKY/WX    TMP DP  RH WIND       PRES   REMARKS
MONTEVIDEO     RAIN      36  36 100 SE13      29.51R
GRANITE FALLS  DRIZZLE   37  36  96 E13G18    29.51S
CANBY          DRIZZLE   37  37 100 SE10      29.48R
MARSHALL       CLOUDY    37  34  87 SE12G17   29.48R
REDWOOD FALLS  LGT RAIN  37  35  92 SE13      29.51R
OLIVIA         CLOUDY    36  34  93 E13       29.52S FOG
PIPESTONE      LGT RAIN  37  37 100 SE8       29.43R
WINDOM         LGT RAIN  36  36 100 E9G18     29.48R
WORTHINGTON    CLOUDY    37 -11  12 SE14      29.46R
JACKSON        CLOUDY    36  34  93 E13       29.48S
TRACY          LGT RAIN  38  37  96 SE8       29.48R
SLAYTON        CLOUDY    36  36 100 SE13      29.46R FOG
$$
MNZ065>067-074>077-082>085-091>093-230000-
   South Central Minnesota

CITY           SKY/WX    TMP DP  RH WIND       PRES   REMARKS
MANKATO        CLOUDY    36  30  80 E13       29.54S
NEW ULM        DRIZZLE   36  36 100 E9        29.53R
FAIRMONT       CLOUDY    36  30  80 E13       29.50S
GLENCOE        DRIZZLE   35  35 100 E10       29.56R WCI  28
FARIBAULT      RAIN      36  34  93 E7        29.57S
OWATONNA       DRIZZLE   36  34  93 E12       29.56R
WASECA         DRIZZLE   34  32  93 E12       29.56S WCI  25
ALBERT LEA     LGT RAIN  36  36 100 E10       29.53S
$$
MNZ078>079-086>088-094>096-230000-
   Southeast Minnesota

CITY           SKY/WX    TMP DP  RH WIND       PRES   REMARKS
ROCHESTER      LGT RAIN  35  33  92 E13       29.57S FOG     WCI  26
RED WING       DRIZZLE   37  36  93 E8        29.61S
STANTON        DRIZZLE   37  34  87 E10       29.58S
DODGE CENTER   DRIZZLE   36  36 100 E12       29.56S
WINONA         DRIZZLE   36  34  93 SE6       29.63S
AUSTIN         DRIZZLE   36  34  93 E14       29.54S
PRESTON        LGT RAIN  33  32  96 E9        29.57F WCI  25
$$
ABBREVIATIONS USED IN REMARKS
   TC - TEMPERATURES IN CELSIUS
  WCI - WIND CHILL INDEX
   HX - HEAT INDEX
  VSB - VISIBILITY
$$


USA.gov is the U.S. government's official web portal to all federal, state and local government web resources and services.